Satellite-Ground Cal/Val Region Overpasses Predictions

Prediction of Satellite NPP Overpassing Cal/Val Region: PacN

Region Location: (Latitude: 15.00, Longitude: 179.40) to (Latitude: 23.50, Longitude: 200.60).

Table of predicted overpasses for the next 14.0 days since TLE Epoch: 6/24/2023
Interval Starting Time Starting Location Ending Time Ending Location
1 06/25/2023 01:19:36 ( 15.01, 179.46) 06/25/2023 01:19:40 ( 15.25, 179.41)
2 07/01/2023 13:38:34 ( 18.70, 180.00) 07/01/2023 13:39:16 ( 16.23, 179.41)
3 07/06/2023 01:14:32 ( 19.23, 179.99) 07/06/2023 01:15:13 ( 21.64, 179.40)
